Regional Weather Roundup
Issued by NWS Northern Indiana

Home | Current Version | Previous Version | Graphics & Text | Print | Product List | Glossary On
Versions: 1 2 3 4 5 6 7 8 9 10 11 12 13 14 15 16 17 18 19 20 21 22 23 24 25 26 27 28 29 30 31 32 33 34 35 36 37 38 39 40 41 42 43 44 45 46 47 48 49 50
000
ASUS43 KIWX 050800
RWRIWX

KIWX WEATHER ROUNDUP
NATIONAL WEATHER SERVICE NORTHERN INDIANA
400 AM EDT WED AUG 05 2015

NOTE: "FAIR" INDICATES FEW OR NO CLOUDS BELOW 12,000 FEET WITH NO
SIGNIFICANT WEATHER AND/OR OBSTRUCTIONS TO VISIBILITY.

* THESE STATIONS ARE NOT UNDER NWS QUALITY CONTROL. THEY ALSO MAY NOT
  REPORT WEATHER SUCH AS PRECIPITATION OR FOG.

INZ001>027-050900-
NORTHERN INDIANA

CITY           SKY/WX    TMP DP  RH WIND       PRES   REMARKS
SOUTH BEND     CLEAR     59  55  87 CALM      30.04S
GOSHEN         CLEAR     58  56  93 CALM      30.03S
MONTICELLO*    CLEAR     59  59  97 CALM      30.03R
ANGOLA*        CLEAR     57  55  94 CALM      30.03S
FORT WAYNE     MOCLDY    61  57  87 CALM      30.04R
PERU/GRISSOM   CLEAR     61  58  90 CALM      30.03R

$$
INZ028>050-050900-
CENTRAL INDIANA

CITY           SKY/WX    TMP DP  RH WIND       PRES   REMARKS
LAFAYETTE      CLEAR     60  58  92 NW3       30.02F
KOKOMO*        CLEAR     61  55  82 CALM      30.04S
MUNCIE*        CLEAR     59  59 100 CALM      30.04R
INDIANAPOLIS   MOCLDY    67  60  78 W3        30.03S

$$
MIZ043>046-050>051-056>058-064>065-071>073-077>080-050900-
SOUTHWEST LOWER MICHIGAN

CITY           SKY/WX    TMP DP  RH WIND       PRES   REMARKS
BATTLE CREEK     N/A    N/A N/A N/A MISG      30.04R
BENTON HARBOR  CLEAR     56  55  97 CALM      30.02S
COLDWATER*     CLEAR     55  55  97 CALM      30.03S
HILLSDALE*     CLEAR     56  56 100 CALM      30.03S
HOLLAND        CLEAR     59  55  87 CALM      30.04R
GRAND RAPIDS   MOCLDY    61  57  87 SW3       30.03F
KALAMAZOO      CLEAR     58  54  86 CALM      30.04R
STURGIS*       CLEAR     55  54  94 S5        30.03R
THREE RIVERS*  FAIR      55  54  95 CALM      30.04R

$$
OHZ001>008-015>018-024>025-050900-
NORTHWEST OHIO

CITY           SKY/WX    TMP DP  RH WIND       PRES   REMARKS
DEFIANCE       CLEAR     59  56  89 CALM      30.03R
FINDLAY        CLEAR     60  57  89 CALM      30.02R
TOLEDO EXPRESS CLEAR     61  55  81 W5        30.02R
TOLEDO METCALF CLEAR     62  54  74 NW6       30.02S
LIMA           CLEAR     57  56  96 CALM      30.03S

$$
AND FOR LAKE MICHIGAN COASTAL AND OPEN LAKE BUOY OBSERVATIONS

STATION/POSITION TEMP    WIND        PRES    VSBY  WAVE
                 AIR SEA DIR/SP/G                  HT/PER
                 (F)     (DEG/KT/KT) (MB)    (MI)  (FT/S)
CALUMET HARBOR    69     200/  3/  5   N/A
MICHIGAN CITY     67     140/  6/  6   N/A
BURNS HARBOR      67     180/  6/  8 1017.3S
SAINT JOSEPH      66     150/  2/  3 1016.9F
4 MI NW BRIDGMAN  71 74  230/  6/  6   N/A           0
MICHIGAN CITY     71 73  200/  6/  8   N/A           1

$$
&&



USA.gov is the U.S. government's official web portal to all federal, state and local government web resources and services.